DW9996 Weather Reports


Display with metric or nautical units.
time (UTC)temp
F
wind
direction
speed
MPH
gust
MPH
rain 1hr
in
rain 24hr
in
rain mn
in
humidity
%
barometer
mb
20210920223129 63 338 6.0 10.0 0.00 0.00 0.00 31 1019.4
20210920221636 64 312 5.0 10.0 0.00 0.00 0.00 31 1019.3
20210920220106 64 10 6.0 10.0 0.00 0.00 0.00 31 1019.1
20210920214632 64 341 5.0 11.0 0.00 0.00 0.00 30 1019.1
20210920213139 65 348 4.0 10.0 0.00 0.00 0.00 31 1018.9
20210920211749 65 338 4.0 10.0 0.00 0.00 0.00 29 1018.7
20210920210114 65 335 4.0 10.0 0.00 0.00 0.00 31 1018.7
20210920204633 64 225 4.0 9.0 0.00 0.00 0.00 32 1018.7
20210920203111 64 108 3.0 8.0 0.00 0.00 0.00 33 1018.6
20210920201630 63 281 2.0 7.0 0.00 0.00 0.00 34 1018.6
20210920200121 62 260 3.0 7.0 0.00 0.00 0.00 36 1018.6
20210920194557 62 324 2.0 6.0 0.00 0.00 0.00 37 1018.6
20210920193055 62 284 3.0 9.0 0.00 0.00 0.00 37 1018.6
20210920191536 61 344 3.0 7.0 0.00 0.00 0.00 39 1018.6
20210920190111 60 303 4.0 9.0 0.00 0.00 0.00 42 1018.5
20210920184625 61 355 5.0 10.0 0.00 0.00 0.00 39 1018.5
20210920183026 61 284 3.0 7.0 0.00 0.00 0.00 40 1018.3
20210920181549 59 205 2.0 7.0 0.00 0.00 0.00 42 1018.1
20210920180032 59 351 4.0 14.0 0.00 0.00 0.00 44 1018.1
20210920174538 59 309 4.0 8.0 0.00 0.00 0.00 43 1018.2
20210920173019 58 302 3.0 14.0 0.00 0.00 0.00 44 1018.1
20210920171547 58 261 6.0 11.0 0.00 0.00 0.00 45 1018.0
20210920170038 58 296 5.0 12.0 0.00 0.00 0.00 46 1018.0
20210920164522 56 332 5.0 8.0 0.00 0.00 0.00 49 1017.8
20210920163018 56 37 3.0 7.0 0.00 0.00 0.00 53 1017.9
20210920161504 53 292 4.0 7.0 0.00 0.00 0.00 55 1017.9
20210920160003 52 316 3.0 6.0 0.00 0.00 0.00 57 1017.7
20210920154617 52 310 1.0 9.0 0.00 0.00 0.00 59 1017.5
20210920154500 52 310 1.0 9.0 0.00 0.00 0.00 59 1017.5
20210920153110 52 332 1.0 6.0 0.00 0.00 0.00 58 1017.1
20210920151853 52 338 3.0 13.0 0.00 0.00 0.00 58 1017.0
20210920150119 53 297 2.0 7.0 0.00 0.00 0.00 57 1016.7
20210920144710 52 309 3.0 10.0 0.00 0.00 0.00 59 1016.5
20210920143054 50 295 4.0 9.0 0.00 0.00 0.00 60 1016.3
20210920141631 50 290 3.0 10.0 0.00 0.00 0.00 61 1016.1
20210920140205 49 289 4.0 10.0 0.00 0.00 0.00 62 1016.0
20210920134632 49 279 4.0 10.0 0.00 0.00 0.00 63 1015.7
20210920133131 47 279 3.0 9.0 0.00 0.00 0.00 66 1015.5
20210920131558 46 284 4.0 7.0 0.00 0.00 0.00 68 1015.4
20210920130043 46 286 3.0 8.0 0.00 0.00 0.00 67 1015.1
20210920124605 46 279 4.0 9.0 0.00 0.00 0.00 67 1014.9
20210920123119 47 250 4.0 10.0 0.00 0.00 0.00 66 1014.7
20210920121532 47 265 4.0 11.0 0.00 0.00 0.00 66 1014.6
20210920120027 47 293 3.0 12.0 0.00 0.00 0.00 66 1014.5
20210920114526 48 267 4.0 9.0 0.00 0.00 0.00 64 1014.2
20210920113059 49 279 6.0 13.0 0.00 0.00 0.00 63 1013.9
20210920111533 49 300 6.0 11.0 0.00 0.00 0.00 62 1013.8
20210920110019 49 261 5.0 10.0 0.00 0.00 0.00 61 1013.7
20210920104605 49 280 5.0 14.0 0.00 0.00 0.00 61 1013.4
20210920103023 49 254 4.0 11.0 0.00 0.00 0.00 61 1013.3
20210920101534 50 271 5.0 11.0 0.00 0.00 0.00 60 1013.0
20210920100018 50 279 4.0 10.0 0.00 0.00 0.00 59 1012.7
20210920094517 49 297 5.0 8.0 0.00 0.00 0.00 60 1012.6
20210920093009 49 279 3.0 7.0 0.00 0.00 0.00 62 1012.5
20210920091509 48 274 3.0 6.0 0.00 0.00 0.00 64 1012.4
20210920090140 47 273 2.0 6.0 0.00 0.00 0.00 63 1012.4
20210920084708 48 271 2.0 6.0 0.00 0.00 0.00 62 1012.1
20210920083202 49 275 3.0 8.0 0.00 0.00 0.00 61 1012.0
20210920081554 50 290 4.0 9.0 0.00 0.00 0.00 60 1011.9
20210920080101 49 290 3.0 7.0 0.00 0.00 0.00 61 1011.6
20210920074610 49 258 4.0 9.0 0.00 0.00 0.00 61 1011.3
20210920073056 49 284 4.0 8.0 0.00 0.00 0.00 62 1011.2
20210920071556 48 303 3.0 7.0 0.00 0.00 0.00 62 1011.0
20210920070115 48 312 4.0 7.0 0.00 0.00 0.00 61 1010.9
20210920064549 48 294 4.0 8.0 0.00 0.00 0.00 61 1010.9
20210920063100 48 295 4.0 10.0 0.00 0.00 0.00 61 1010.8
20210920061548 49 291 3.0 7.0 0.00 0.00 0.00 59 1010.8
20210920060113 49 277 3.0 6.0 0.00 0.00 0.00 59 1010.8
20210920054613 49 304 2.0 4.0 0.00 0.00 0.00 58 1010.8
20210920053135 50 303 3.0 7.0 0.00 0.00 0.00 55 1010.6
20210920051529 51 286 4.0 8.0 0.00 0.00 0.00 54 1010.4
20210920050035 51 311 2.0 7.0 0.00 0.00 0.00 53 1010.4
20210920044523 52 300 5.0 13.0 0.00 0.00 0.00 51 1010.0
20210920043019 53 254 6.0 14.0 0.00 0.00 0.00 51 1009.7
20210920041541 53 278 4.0 10.0 0.00 0.00 0.00 50 1009.6
20210920040046 53 272 4.0 9.0 0.00 0.00 0.00 52 1009.6
20210920034527 51 286 2.0 7.0 0.00 0.00 0.00 53 1009.4
20210920033012 52 281 1.0 4.0 0.00 0.00 0.00 53 1009.2
20210920031517 54 217 2.0 4.0 0.00 0.00 0.00 54 1009.0
20210920030018 55 181 0.0 1.0 0.00 0.00 0.00 54 1008.8
20210920024505 55 181 1.0 3.0 0.00 0.00 0.00 52 1008.5
20210920023004 56 176 0.0 2.0 0.00 0.00 0.00 51 1008.3
20210920021506 57 161 1.0 3.0 0.00 0.00 0.00 50 1008.1
20210920020115 57 126 1.0 3.0 0.00 0.00 0.00 49 1007.9
20210920014603 57 135 2.0 7.0 0.00 0.00 0.00 48 1007.7
20210920013230 57 109 1.0 4.0 0.00 0.00 0.00 49 1007.5
20210920011716 58 152 1.0 4.0 0.00 0.00 0.00 48 1007.3
20210920004725 60 15 2.0 5.0 0.00 0.00 0.00 39 1007.0
20210920003222 60 26 3.0 7.0 0.00 0.00 0.00 38 1006.7
20210920001625 61 37 4.0 8.0 0.00 0.00 0.00 38 1006.5
20210920000058 61 338 3.0 7.0 0.00 0.00 0.00 37 1006.2
20210919234609 62 247 4.0 10.0 0.00 0.00 0.00 39 1006.1
20210919233044 61 275 6.0 11.0 0.00 0.00 0.00 40 1005.9
20210919231618 62 265 6.0 11.0 0.00 0.00 0.00 40 1005.8
20210919230057 62 298 5.0 15.0 0.00 0.00 0.00 39 1005.6
20210919224542 62 246 3.0 10.0 0.00 0.00 0.00 39 1005.5